period_start,C,m1,H,J0,J1,J2,J3,J4,J5,JA,JB,JC,JD,JJ,JK,JN,#
2015-07-28 00:02:20,0.01,0.21,0.00,23.82,27.31,29.68,4.75,25.06,1022.48,2039.93,3305.92,3220.75,3490.19,350.04,348.80,4.86,0000 0000 0000 0000 000000
2015-07-28 00:07:21,0.02,0.21,0.00,23.82,27.31,29.69,4.76,24.92,1022.48,2039.87,3305.82,3220.24,3490.03,349.70,348.36,4.89,0000 0000 0000 0000 000000
2015-07-28 00:12:23,0.00,0.21,0.00,23.82,27.32,29.67,4.78,24.93,1022.48,2039.94,3305.89,3220.26,3490.02,349.84,348.54,4.92,0000 0000 0000 0000 000000
2015-07-28 00:17:24,0.01,0.21,0.00,23.83,27.32,29.69,4.73,25.00,1022.49,2039.94,3305.62,3220.07,3490.00,349.80,348.59,4.95,0000 0000 0000 0000 000000
2015-07-28 00:22:25,-0.01,0.21,0.00,23.85,27.32,29.69,4.75,25.07,1022.49,2039.80,3305.22,3220.02,3490.00,349.67,348.40,4.98,0000 0000 0000 0000 000000
2015-07-28 00:27:26,0.01,0.21,0.00,23.85,27.32,29.68,4.77,24.93,1022.49,2039.78,3305.05,3220.01,3490.00,350.43,349.24,5.01,0000 0000 0000 0000 000000
2015-07-28 00:32:27,0.01,0.21,0.00,23.84,27.32,29.68,4.81,24.97,1022.49,2039.88,3305.03,3220.01,3490.00,350.18,348.71,5.04,0000 0000 0000 0000 000000
2015-07-28 00:37:28,0.00,0.21,0.00,23.84,27.32,29.70,4.76,24.95,1022.49,2039.87,3305.01,3220.01,3489.98,349.84,348.43,5.07,0000 0000 0000 0000 000000
2015-07-28 00:42:29,-0.01,0.21,0.00,23.84,27.32,29.70,4.77,25.00,1022.49,2039.79,3305.00,3220.00,3489.95,349.67,348.53,5.10,0000 0000 0000 0000 000000
2015-07-28 00:47:31,0.01,0.21,0.00,23.85,27.32,29.69,4.86,24.96,1022.50,2039.76,3304.99,3220.00,3489.83,350.51,349.06,5.13,0000 0000 0000 0000 000000
2015-07-28 00:52:32,-0.03,0.21,0.00,23.86,27.32,29.69,4.84,25.06,1022.49,2039.57,3304.98,3219.99,3489.43,350.06,348.88,5.16,0000 0000 0000 0000 000000
2015-07-28 00:57:33,-0.01,0.21,0.00,23.86,27.32,29.69,4.71,24.94,1022.49,2039.47,3304.95,3219.97,3489.16,349.66,348.38,5.19,0000 0000 0000 0000 000000
2015-07-28 01:02:34,-0.01,0.21,0.00,23.87,27.32,29.69,4.78,25.07,1022.51,2039.46,3304.73,3219.96,3489.09,349.89,348.61,5.22,0000 0000 0000 0000 000000
2015-07-28 01:07:36,0.02,0.21,0.00,23.85,27.32,29.69,4.76,25.01,1022.51,2039.34,3304.48,3219.94,3489.02,349.93,348.65,5.25,0000 0000 0000 0000 000000
2015-07-28 01:12:37,0.01,0.21,0.00,23.85,27.32,29.69,4.75,24.98,1022.51,2039.44,3304.49,3219.97,3489.02,349.59,348.37,5.27,0000 0000 0000 0000 000000
2015-07-28 01:17:38,0.01,0.21,0.00,23.85,27.32,29.70,4.82,25.24,1022.51,2039.45,3304.26,3219.94,3489.02,349.95,348.53,5.30,0000 0000 0000 0000 000000
2015-07-28 01:22:40,0.00,0.21,0.00,23.86,27.32,29.69,4.69,25.05,1022.51,2039.56,3304.16,3219.96,3489.01,349.17,348.14,5.33,0000 0000 0000 0000 000000
2015-07-28 01:27:41,-0.02,0.21,0.00,23.87,27.32,29.68,4.72,24.98,1022.58,2039.38,3304.03,3219.84,3489.00,349.70,348.45,5.36,0000 0000 0000 0000 000000
2015-07-28 01:32:42,0.01,0.21,0.00,23.87,27.32,29.69,4.70,24.93,1022.73,2039.28,3304.02,3219.54,3489.00,349.44,348.13,5.39,0000 0000 0000 0000 000000
2015-07-28 01:37:44,-0.00,0.21,0.00,23.87,27.32,29.70,4.81,25.04,1022.70,2039.24,3304.00,3219.33,3489.00,350.43,348.99,5.42,0000 0000 0000 0000 000000
2015-07-28 01:42:45,0.02,0.21,0.00,23.85,27.32,29.68,4.81,24.93,1022.69,2039.33,3304.00,3219.30,3489.00,350.18,349.09,5.45,0000 0000 0000 0000 000000
2015-07-28 01:47:46,0.01,0.21,0.00,23.85,27.33,29.70,4.63,24.88,1022.74,2039.22,3303.80,3219.04,3488.81,349.82,348.66,5.48,0000 0000 0000 0000 000000
2015-07-28 01:52:47,-0.00,0.21,0.00,23.87,27.33,29.70,4.72,24.98,1022.92,2039.09,3303.30,3219.00,3488.30,350.26,349.06,5.51,0000 0000 0000 0000 000000
2015-07-28 01:57:48,0.02,0.21,0.00,23.87,27.33,29.70,4.69,24.88,1022.92,2039.14,3303.30,3219.00,3488.17,350.02,348.89,5.54,0000 0000 0000 0000 000000
2015-07-28 02:02:49,-0.01,0.21,0.00,23.87,27.34,29.68,4.81,25.06,1022.94,2039.08,3303.14,3219.00,3488.11,349.70,348.35,5.57,0000 0000 0000 0000 000000
2015-07-28 02:07:51,0.00,0.21,0.00,23.87,27.34,29.70,4.76,24.93,1022.96,2039.09,3303.10,3218.99,3488.08,349.62,348.52,5.60,0000 0000 0000 0000 000000
2015-07-28 02:12:52,-0.00,0.21,0.00,23.87,27.35,29.71,4.88,25.06,1022.95,2039.09,3303.15,3218.99,3488.07,350.54,349.25,5.63,0000 0000 0000 0000 000000
2015-07-28 02:17:53,-0.00,0.21,0.00,23.87,27.35,29.71,4.72,25.18,1022.96,2039.07,3303.07,3218.99,3488.03,350.00,348.84,5.66,0000 0000 0000 0000 000000
2015-07-28 02:22:55,0.01,0.21,0.00,23.88,27.35,29.73,4.78,25.13,1022.94,2039.08,3303.04,3218.99,3488.02,350.09,348.94,5.68,0000 0000 0000 0000 000000
2015-07-28 02:27:56,0.00,0.21,0.00,23.89,27.35,29.71,4.84,25.01,1022.95,2039.10,3303.01,3218.99,3488.00,350.32,348.97,5.71,0000 0000 0000 0000 000000
2015-07-28 02:32:57,-0.00,0.21,0.00,23.89,27.35,29.71,4.70,24.96,1022.94,2039.08,3303.00,3218.98,3488.00,349.75,348.49,5.74,0000 0000 0000 0000 000000
2015-07-28 02:37:58,-0.00,0.21,0.00,23.86,27.35,29.74,4.86,25.02,1022.94,2039.07,3303.00,3218.97,3488.00,350.50,349.37,5.77,0000 0000 0000 0000 000000
2015-07-28 02:42:59,0.00,0.21,0.00,23.74,27.35,29.91,4.88,25.04,1022.95,2039.08,3303.00,3218.97,3488.00,350.49,349.55,5.80,0000 0000 0000 0000 000000
2015-07-28 02:48:00,-0.00,0.21,0.00,23.59,27.35,30.07,4.73,24.97,1022.96,2039.04,3302.98,3218.95,3488.00,349.65,348.93,5.83,0000 0000 0000 0000 000000
2015-07-28 02:53:01,0.00,0.21,0.00,23.44,27.33,30.15,4.83,24.91,1022.96,2039.02,3302.98,3218.97,3488.00,350.05,349.33,5.86,0000 0000 0000 0000 000000
2015-07-28 02:58:02,0.01,0.21,0.00,23.30,27.32,30.07,4.82,25.01,1022.96,2039.05,3302.97,3218.98,3488.00,350.25,349.86,5.89,0000 0000 0000 0000 000000
2015-07-28 03:03:03,0.00,0.21,0.00,23.35,27.32,30.01,4.91,25.37,1022.95,2039.07,3302.98,3218.98,3488.00,350.31,349.68,5.92,0000 0000 0000 0000 000000
2015-07-28 03:08:04,0.04,0.21,0.00,23.55,27.30,29.97,4.80,25.27,1022.91,2039.34,3302.98,3218.98,3488.00,350.01,349.29,5.95,0000 0000 0000 0000 000000
2015-07-28 03:13:05,0.02,0.21,0.00,23.52,27.30,29.97,4.89,25.38,1022.94,2039.46,3302.87,3218.97,3488.00,350.69,349.84,5.98,0000 0000 0000 0000 000000
2015-07-28 03:18:06,-0.01,0.21,0.00,23.38,27.30,29.96,4.72,25.23,1022.95,2039.16,3302.14,3218.72,3487.96,349.66,349.01,6.01,0000 0000 0000 0000 000000
2015-07-28 03:23:07,0.03,0.21,0.00,23.43,27.30,29.84,4.80,25.27,1022.94,2039.12,3302.01,3218.24,3487.71,350.08,349.29,6.04,0000 0000 0000 0000 000000
2015-07-28 03:28:09,-0.00,0.22,0.00,23.48,27.28,29.85,4.82,25.21,1022.86,2039.09,3302.00,3218.10,3487.39,350.23,350.14,6.07,0000 0000 0000 0000 000000
2015-07-28 03:33:10,0.02,0.22,0.00,23.51,27.27,29.86,4.86,25.21,1022.80,2039.18,3301.97,3218.07,3487.40,349.23,348.44,6.09,0000 0000 0000 0000 000000
2015-07-28 03:38:11,0.00,0.22,0.00,23.53,27.27,29.84,4.81,25.24,1022.87,2039.21,3301.98,3218.09,3487.23,350.18,349.50,6.12,0000 0000 0000 0000 000000
2015-07-28 03:43:12,0.06,0.22,0.00,23.53,27.25,29.80,4.86,25.17,1022.95,2039.62,3301.98,3218.16,3487.67,349.91,349.10,6.15,0000 0000 0000 0000 000000
2015-07-28 03:48:13,-0.01,0.22,0.00,23.54,27.25,29.79,4.81,25.13,1022.95,2039.72,3301.98,3218.28,3487.78,349.84,349.14,6.18,0000 0000 0000 0000 000000
2015-07-28 03:53:15,0.01,0.22,0.00,23.57,27.25,29.76,4.82,25.02,1022.93,2039.90,3301.98,3218.59,3487.93,350.32,349.49,6.21,0000 0000 0000 0000 000000
2015-07-28 03:58:16,-0.01,0.22,0.00,23.57,27.23,29.72,4.83,25.02,1022.94,2039.95,3301.98,3218.66,3487.94,350.65,350.10,6.24,0000 0000 0000 0000 000000
2015-07-28 04:03:17,-0.01,0.22,0.00,23.58,27.22,29.70,4.80,25.11,1022.94,2039.94,3301.99,3218.91,3487.94,350.13,349.28,6.27,0000 0000 0000 0000 000000
2015-07-28 04:08:18,-0.00,0.22,0.00,23.60,27.22,29.71,4.69,25.07,1022.96,2039.95,3302.00,3218.92,3487.96,349.78,348.86,6.30,0000 0000 0000 0000 000000
2015-07-28 04:13:20,0.00,0.22,0.00,23.60,27.22,29.69,4.77,25.06,1022.96,2039.97,3302.00,3218.96,3487.98,349.95,349.29,6.33,0000 0000 0000 0000 000000
2015-07-28 04:18:21,-0.00,0.22,0.00,23.61,27.22,29.68,4.89,25.11,1022.96,2039.95,3302.00,3218.95,3487.96,351.35,350.41,6.36,0000 0000 0000 0000 000000
2015-07-28 04:23:22,0.00,0.22,0.00,23.62,27.21,29.67,4.76,24.88,1022.96,2039.96,3301.99,3218.94,3487.97,349.78,348.66,6.39,0000 0000 0000 0000 000000
2015-07-28 04:28:23,0.00,0.22,0.00,23.64,27.20,29.64,4.73,24.85,1022.96,2039.99,3301.99,3218.95,3487.98,349.82,349.04,6.42,0000 0000 0000 0000 000000
2015-07-28 04:33:25,0.01,0.22,0.00,23.65,27.20,29.64,4.76,24.92,1022.96,2039.98,3301.98,3218.85,3487.92,349.87,349.11,6.45,0000 0000 0000 0000 000000
2015-07-28 04:38:26,-0.01,0.22,0.00,23.65,27.20,29.63,4.80,24.89,1022.96,2039.97,3301.98,3218.87,3487.91,350.52,349.65,6.48,0000 0000 0000 0000 000000
2015-07-28 04:43:27,0.03,0.22,0.00,23.65,27.20,29.64,4.79,24.98,1022.96,2039.97,3301.97,3218.67,3487.59,350.43,349.54,6.50,0000 0000 0000 0000 000000
2015-07-28 04:48:29,0.02,0.22,0.00,23.66,27.20,29.64,4.75,24.93,1022.96,2039.95,3301.74,3218.26,3487.21,349.72,348.85,6.53,0000 0000 0000 0000 000000
2015-07-28 04:53:30,0.00,0.22,0.00,23.67,27.20,29.62,4.83,24.93,1022.96,2039.98,3301.76,3218.42,3487.21,349.76,348.83,6.56,0000 0000 0000 0000 000000
2015-07-28 04:58:31,0.01,0.22,0.00,23.67,27.20,29.63,4.73,24.87,1022.96,2039.98,3301.40,3218.26,3487.28,349.95,349.03,6.59,0000 0000 0000 0000 000000
2015-07-28 05:03:32,0.01,0.22,0.00,23.68,27.20,29.63,4.77,24.99,1022.96,2039.99,3301.09,3218.25,3487.35,350.20,349.15,6.62,0000 0000 0000 0000 000000
2015-07-28 05:08:34,0.01,0.22,0.00,23.67,27.20,29.63,4.81,24.85,1022.96,2039.99,3301.02,3218.11,3487.12,350.42,349.72,6.65,0000 0000 0000 0000 000000
2015-07-28 05:13:35,0.00,0.22,0.00,23.69,27.20,29.63,4.86,24.92,1022.96,2039.99,3301.01,3218.06,3487.03,350.58,349.52,6.68,0000 0000 0000 0000 000000
2015-07-28 05:18:36,0.00,0.22,0.00,23.70,27.20,29.61,4.92,24.99,1022.96,2039.98,3301.00,3218.04,3487.00,350.71,349.65,6.71,0000 0000 0000 0000 000000
2015-07-28 05:23:37,0.00,0.22,0.00,23.71,27.20,29.62,4.64,24.85,1022.96,2039.99,3301.00,3218.01,3487.00,349.10,347.98,6.74,0000 0000 0000 0000 000000
2015-07-28 05:28:38,0.00,0.22,0.00,23.71,27.20,29.60,4.81,24.83,1022.96,2039.99,3300.98,3218.00,3486.99,350.41,349.25,6.77,0000 0000 0000 0000 000000
2015-07-28 05:33:39,0.00,0.22,0.00,23.72,27.20,29.61,4.74,24.84,1022.96,2039.98,3300.96,3218.01,3486.98,349.87,349.09,6.80,0000 0000 0000 0000 000000
2015-07-28 05:38:40,0.00,0.22,0.00,23.72,27.20,29.59,4.79,24.95,1022.96,2039.99,3300.88,3218.00,3486.96,349.48,348.62,6.83,0000 0000 0000 0000 000000
2015-07-28 05:43:42,0.02,0.22,0.00,23.72,27.20,29.55,4.83,24.82,1022.96,2039.99,3300.27,3218.00,3486.95,350.12,349.07,6.86,0000 0000 0000 0000 000000
2015-07-28 05:48:43,0.01,0.22,0.00,23.72,27.20,29.60,4.79,24.73,1022.96,2039.98,3300.05,3217.97,3486.83,350.07,348.66,6.89,0000 0000 0000 0000 000000
2015-07-28 05:53:45,0.01,0.22,0.00,23.60,27.20,29.76,4.84,24.81,1022.96,2039.99,3300.01,3217.97,3486.59,350.19,349.28,6.91,0000 0000 0000 0000 000000
2015-07-28 05:58:46,0.00,0.22,0.00,23.45,27.20,29.91,4.75,24.74,1022.96,2039.98,3300.00,3217.97,3486.36,349.92,349.20,6.94,0000 0000 0000 0000 000000
2015-07-28 06:03:47,0.01,0.22,0.00,23.32,27.20,29.97,4.80,25.09,1022.96,2039.99,3299.99,3217.97,3486.18,349.92,349.35,6.97,0000 0000 0000 0000 000000
2015-07-28 06:08:49,-0.00,0.22,0.00,23.37,27.20,29.91,4.90,25.13,1022.96,2039.99,3299.99,3217.94,3486.09,349.93,349.43,7.00,0000 0000 0000 0000 000000
2015-07-28 06:13:50,-0.00,0.22,0.00,23.49,27.20,29.88,4.91,25.21,1022.96,2039.99,3299.99,3217.96,3486.23,349.98,349.40,7.03,0000 0000 0000 0000 000000
2015-07-28 06:18:51,0.01,0.22,0.00,23.54,27.20,29.87,4.75,25.27,1022.96,2039.99,3299.99,3217.95,3486.05,350.45,349.51,7.06,0000 0000 0000 0000 000000
2015-07-28 06:23:53,0.00,0.22,0.00,23.40,27.20,29.86,4.78,25.22,1022.96,2039.99,3299.98,3217.87,3486.02,350.21,349.51,7.09,0000 0000 0000 0000 000000
2015-07-28 06:28:54,0.02,0.22,0.00,23.34,27.20,29.82,4.81,25.09,1022.96,2039.99,3299.76,3217.54,3486.00,350.00,349.30,7.12,0000 0000 0000 0000 000000
2015-07-28 06:33:55,0.05,0.22,0.00,23.35,27.19,29.77,4.77,24.98,1022.96,2039.99,3299.13,3217.12,3485.79,349.87,349.41,7.15,0000 0000 0000 0000 000000
2015-07-28 06:38:57,0.03,0.23,0.00,23.32,27.17,29.78,4.77,24.98,1022.96,2039.99,3298.39,3216.99,3485.17,349.64,348.90,7.18,0000 0000 0000 0000 000000
2015-07-28 06:43:58,0.00,0.23,0.00,23.32,27.17,29.79,4.71,24.88,1022.96,2039.99,3298.10,3216.98,3485.09,349.74,349.14,7.21,0000 0000 0000 0000 000000
2015-07-28 06:48:59,0.00,0.23,0.00,23.33,27.15,29.78,4.83,24.93,1022.96,2039.99,3298.04,3216.97,3485.05,350.57,349.62,7.24,0000 0000 0000 0000 000000
2015-07-28 06:54:00,0.00,0.23,0.00,23.35,27.15,29.76,4.72,24.78,1022.96,2039.99,3298.01,3216.96,3485.01,349.80,349.36,7.27,0000 0000 0000 0000 000000
2015-07-28 06:59:01,0.00,0.23,0.00,23.34,27.13,29.72,4.79,24.82,1022.96,2039.99,3298.00,3216.92,3485.00,349.87,349.23,7.30,0000 0000 0000 0000 000000
2015-07-28 07:04:02,0.00,0.23,0.00,23.28,27.12,29.71,4.83,25.02,1022.96,2039.99,3298.00,3216.96,3485.01,350.51,350.14,7.32,0000 0000 0000 0000 000000
2015-07-28 07:09:03,0.00,0.23,0.00,23.27,27.10,29.71,4.81,24.77,1022.96,2040.00,3297.99,3216.97,3485.01,349.88,349.21,7.35,0000 0000 0000 0000 000000
2015-07-28 07:14:05,0.00,0.23,0.00,23.27,27.10,29.71,4.84,24.82,1022.96,2040.02,3297.99,3216.99,3485.04,350.01,349.62,7.38,0000 0000 0000 0000 000000
2015-07-28 07:19:06,0.00,0.23,0.00,23.29,27.08,29.67,4.74,24.86,1022.94,2040.03,3297.99,3216.99,3485.09,349.91,349.48,7.41,0000 0000 0000 0000 000000
2015-07-28 07:24:07,-0.00,0.23,0.00,23.32,27.07,29.66,4.79,24.88,1022.90,2040.05,3298.01,3216.99,3485.10,350.14,349.49,7.44,0000 0000 0000 0000 000000
2015-07-28 07:29:08,-0.00,0.23,0.00,23.34,27.06,29.63,4.77,24.78,1022.87,2040.04,3298.00,3216.99,3485.11,349.56,349.47,7.47,0000 0000 0000 0000 000000
2015-07-28 07:34:09,0.02,0.23,0.00,23.37,27.05,29.60,4.82,24.85,1022.74,2040.11,3298.00,3216.99,3485.16,350.56,349.68,7.50,0000 0000 0000 0000 000000
2015-07-28 07:39:10,0.02,0.23,0.00,23.40,27.05,29.59,4.78,24.77,1022.62,2040.35,3298.00,3216.99,3485.45,349.73,348.99,7.53,0000 0000 0000 0000 000000
2015-07-28 07:44:11,-0.00,0.23,0.00,23.42,27.03,29.55,4.77,24.98,1022.63,2040.35,3298.00,3216.99,3485.22,349.62,349.29,7.56,0000 0000 0000 0000 000000
2015-07-28 07:49:13,0.01,0.23,0.00,23.44,27.02,29.51,4.82,24.94,1022.76,2040.30,3297.98,3216.98,3485.02,350.11,349.30,7.59,0000 0000 0000 0000 000000
2015-07-28 07:54:14,0.07,0.23,0.00,23.47,27.02,29.48,4.79,24.87,1022.78,2040.63,3297.99,3216.99,3485.04,350.00,349.53,7.62,0000 0000 0000 0000 000000
2015-07-28 07:59:15,0.00,0.23,0.00,23.48,27.02,29.45,4.82,24.85,1022.75,2040.69,3297.63,3216.93,3485.01,350.12,349.34,7.65,0000 0000 0000 0000 000000
2015-07-28 08:04:16,-0.01,0.23,0.00,23.51,27.02,29.47,4.81,25.02,1022.85,2040.55,3297.03,3216.58,3484.97,350.20,349.22,7.68,0000 0000 0000 0000 000000
2015-07-28 08:09:18,0.07,0.23,0.00,23.52,27.02,29.42,4.77,24.77,1022.92,2040.72,3297.00,3216.17,3484.98,350.15,349.39,7.71,0000 0000 0000 0000 000000
2015-07-28 08:14:18,-0.01,0.23,0.00,23.54,27.02,29.42,4.82,24.72,1022.87,2040.62,3296.99,3216.04,3484.95,350.53,349.54,7.73,0000 0000 0000 0000 000000
2015-07-28 08:19:20,0.00,0.23,0.00,23.56,27.02,29.42,4.73,24.80,1022.91,2040.51,3296.94,3216.01,3484.72,349.55,348.60,7.76,0000 0000 0000 0000 000000
2015-07-28 08:24:21,-0.01,0.23,0.00,23.57,27.02,29.40,4.82,24.80,1022.90,2040.37,3296.75,3216.01,3484.23,350.31,349.39,7.79,0000 0000 0000 0000 000000
2015-07-28 08:29:22,-0.01,0.23,0.00,23.58,27.02,29.39,4.69,24.69,1022.93,2040.31,3296.39,3216.00,3484.05,349.84,349.10,7.82,0000 0000 0000 0000 000000
2015-07-28 08:34:23,-0.00,0.23,0.00,23.60,27.02,29.40,4.75,24.74,1022.96,2040.22,3296.12,3216.00,3484.02,350.26,349.10,7.85,0000 0000 0000 0000 000000
2015-07-28 08:39:24,0.01,0.23,0.00,23.62,27.02,29.38,4.75,24.81,1022.96,2040.18,3296.02,3216.00,3484.00,349.95,348.96,7.88,0000 0000 0000 0000 000000
2015-07-28 08:44:25,0.02,0.23,0.00,23.62,27.02,29.38,4.77,24.78,1022.96,2040.36,3296.00,3216.00,3484.00,349.67,348.78,7.91,0000 0000 0000 0000 000000
2015-07-28 08:49:27,0.00,0.23,0.00,23.62,27.02,29.38,4.78,24.74,1022.96,2040.32,3296.00,3215.98,3484.00,350.22,349.25,7.94,0000 0000 0000 0000 000000
2015-07-28 08:54:28,-0.04,0.23,0.00,23.64,27.02,29.39,4.79,24.79,1022.96,2040.14,3296.00,3215.97,3484.00,349.91,348.86,7.97,0000 0000 0000 0000 000000
2015-07-28 08:59:29,0.00,0.23,0.00,23.64,27.03,29.40,4.82,24.77,1022.95,2040.08,3295.99,3215.94,3484.00,350.76,349.65,8.00,0000 0000 0000 0000 000000
2015-07-28 09:04:30,0.00,0.23,0.00,23.69,27.04,29.39,4.78,24.98,1022.91,2040.06,3295.94,3215.88,3483.97,349.93,348.96,8.03,0000 0000 0000 0000 000000
2015-07-28 09:09:32,0.01,0.23,0.00,23.72,27.05,29.38,4.82,24.82,1022.95,2040.09,3295.93,3215.79,3483.89,349.59,348.55,8.06,0000 0000 0000 0000 000000
2015-07-28 09:14:33,0.05,0.23,0.00,23.73,27.05,29.39,4.75,24.70,1022.96,2040.04,3295.46,3215.28,3483.38,350.29,349.27,8.09,0000 0000 0000 0000 000000
2015-07-28 09:19:34,0.01,0.23,0.00,23.75,27.06,29.41,4.71,24.68,1022.96,2040.07,3295.11,3215.11,3483.15,349.73,348.81,8.12,0000 0000 0000 0000 000000
2015-07-28 09:24:35,0.00,0.23,0.00,23.75,27.07,29.43,4.84,24.88,1022.96,2040.02,3294.99,3215.01,3483.00,350.35,349.32,8.14,0000 0000 0000 0000 000000
2015-07-28 09:29:36,-0.00,0.23,0.00,23.75,27.08,29.44,4.71,24.64,1022.96,2040.02,3294.88,3215.00,3483.00,350.05,349.24,8.17,0000 0000 0000 0000 000000
2015-07-28 09:34:37,0.02,0.23,0.00,23.77,27.10,29.45,4.83,24.69,1022.96,2040.00,3294.15,3214.98,3482.91,350.26,349.26,8.20,0000 0000 0000 0000 000000
2015-07-28 09:39:39,0.01,0.23,0.00,23.78,27.10,29.47,4.71,24.66,1022.96,2040.00,3294.00,3214.86,3482.43,349.64,348.61,8.23,0000 0000 0000 0000 000000
2015-07-28 09:44:40,0.01,0.23,0.00,23.77,27.12,29.49,4.78,24.68,1022.94,2040.00,3294.00,3214.71,3482.13,349.85,348.57,8.26,0000 0000 0000 0000 000000
2015-07-28 09:49:42,0.03,0.23,0.00,23.77,27.12,29.51,4.84,24.84,1022.95,2040.00,3293.99,3214.35,3482.02,350.14,349.07,8.29,0000 0000 0000 0000 000000
2015-07-28 09:54:43,0.01,0.24,0.00,23.77,27.14,29.53,4.86,24.68,1022.96,2040.00,3293.83,3214.03,3482.00,349.95,349.13,8.32,0000 0000 0000 0000 000000
2015-07-28 09:59:44,0.02,0.24,0.00,23.78,27.15,29.54,4.73,24.63,1022.96,2040.00,3293.09,3214.00,3481.97,349.61,348.69,8.35,0000 0000 0000 0000 000000
2015-07-28 10:04:45,0.02,0.24,0.00,23.79,27.15,29.54,4.81,24.82,1022.96,2040.00,3293.00,3213.96,3481.37,350.60,349.57,8.38,0000 0000 0000 0000 000000
2015-07-28 10:09:46,0.00,0.24,0.00,23.80,27.17,29.55,4.68,24.62,1022.96,2040.00,3292.99,3213.96,3481.10,349.43,348.14,8.41,0000 0000 0000 0000 000000
2015-07-28 10:14:47,0.00,0.24,0.00,23.80,27.17,29.56,4.74,24.69,1022.96,2039.98,3292.96,3213.86,3481.03,349.50,348.48,8.44,0000 0000 0000 0000 000000
2015-07-28 10:19:49,0.02,0.24,0.00,23.78,27.19,29.58,4.84,24.75,1022.96,2039.98,3292.77,3213.51,3481.00,349.95,348.97,8.47,0000 0000 0000 0000 000000
2015-07-28 10:24:50,0.01,0.24,0.00,23.79,27.20,29.59,4.75,24.59,1022.96,2039.96,3292.63,3213.33,3481.00,349.06,347.96,8.50,0000 0000 0000 0000 000000
2015-07-28 10:29:51,0.02,0.24,0.00,23.80,27.20,29.60,4.72,24.66,1022.96,2039.95,3292.19,3213.09,3481.00,349.64,348.61,8.52,0000 0000 0000 0000 000000
2015-07-28 10:34:52,0.01,0.24,0.00,23.79,27.21,29.61,4.81,24.63,1022.96,2039.96,3292.03,3213.02,3480.98,350.04,348.88,8.55,0000 0000 0000 0000 000000
2015-07-28 10:39:54,-0.00,0.24,0.00,23.79,27.22,29.62,4.81,24.62,1022.96,2039.93,3292.00,3213.00,3480.96,350.32,349.33,8.58,0000 0000 0000 0000 000000
2015-07-28 10:44:55,-0.01,0.24,0.00,23.79,27.22,29.61,4.71,24.57,1022.96,2039.86,3291.99,3213.00,3480.73,349.73,348.88,8.61,0000 0000 0000 0000 000000
2015-07-28 10:49:56,0.02,0.24,0.00,23.77,27.23,29.62,4.75,24.57,1022.96,2039.91,3291.96,3213.00,3480.77,350.24,349.29,8.64,0000 0000 0000 0000 000000
2015-07-28 10:54:57,0.01,0.24,0.00,23.77,27.25,29.63,4.76,24.62,1022.96,2039.85,3291.72,3212.99,3480.34,350.14,349.15,8.67,0000 0000 0000 0000 000000
2015-07-28 10:59:58,0.01,0.24,0.00,23.79,27.25,29.63,4.70,24.64,1022.95,2039.82,3291.16,3212.93,3480.06,349.79,348.68,8.70,0000 0000 0000 0000 000000
2015-07-28 11:05:00,-0.06,0.24,0.00,23.80,27.25,29.64,4.70,24.80,1022.93,2039.37,3291.04,3212.66,3480.01,349.73,348.71,8.73,0000 0000 0000 0000 000000
2015-07-28 11:10:01,-0.02,0.24,0.00,23.80,27.25,29.63,4.82,24.68,1022.93,2039.34,3291.45,3212.86,3480.00,350.24,349.08,8.76,0000 0000 0000 0000 000000
2015-07-28 11:15:02,0.03,0.24,0.00,23.79,27.26,29.64,4.68,24.61,1022.93,2039.51,3291.69,3212.92,3480.01,349.59,348.56,8.79,0000 0000 0000 0000 000000
2015-07-28 11:20:03,-0.05,0.24,0.00,23.79,27.27,29.66,4.84,24.70,1022.93,2039.26,3291.67,3212.89,3480.00,350.23,349.03,8.82,0000 0000 0000 0000 000000
2015-07-28 11:25:04,0.01,0.24,0.00,23.77,27.27,29.65,4.77,24.68,1022.92,2039.05,3291.09,3212.45,3480.00,349.76,348.62,8.85,0000 0000 0000 0000 000000
2015-07-28 11:30:06,0.02,0.24,0.00,23.77,27.27,29.65,4.69,24.50,1022.89,2039.03,3291.01,3212.15,3479.99,349.30,348.45,8.88,0000 0000 0000 0000 000000
2015-07-28 11:35:07,0.00,0.24,0.00,23.77,27.27,29.66,4.74,24.50,1022.87,2039.06,3291.00,3212.09,3479.99,349.52,348.29,8.91,0000 0000 0000 0000 000000
2015-07-28 11:40:08,0.08,0.24,0.00,23.79,27.27,29.67,4.76,24.50,1022.74,2039.06,3290.20,3211.71,3479.26,349.77,348.62,8.93,0000 0000 0000 0000 000000
2015-07-28 11:45:09,0.02,0.24,0.00,23.77,27.28,29.67,4.72,24.60,1022.60,2039.07,3289.76,3211.08,3478.99,349.62,348.50,8.96,0000 0000 0000 0000 000000
2015-07-28 11:50:10,-0.00,0.24,0.00,23.76,27.29,29.68,4.79,24.59,1022.50,2039.04,3289.77,3211.06,3478.93,350.30,349.13,8.99,0000 0000 0000 0000 000000
2015-07-28 11:55:11,0.01,0.24,0.00,23.76,27.30,29.67,4.81,24.59,1022.50,2039.05,3289.34,3211.05,3478.91,350.03,348.70,9.02,0000 0000 0000 0000 000000
2015-07-28 12:00:13,0.01,0.24,0.00,23.77,27.30,29.69,4.78,24.68,1022.49,2039.08,3289.48,3211.04,3478.87,349.89,348.51,9.05,0000 0000 0000 0000 000000
2015-07-28 12:05:14,0.01,0.24,0.00,23.77,27.30,29.70,4.83,24.88,1022.48,2039.02,3289.05,3211.00,3478.43,350.44,349.31,9.08,0000 0000 0000 0000 000000
2015-07-28 12:10:15,0.01,0.24,0.00,23.77,27.30,29.69,4.77,24.63,1022.49,2039.04,3289.01,3211.00,3478.31,349.72,348.48,9.11,0000 0000 0000 0000 000000
2015-07-28 12:15:17,0.00,0.24,0.00,23.77,27.30,29.69,4.71,24.57,1022.50,2039.02,3289.01,3211.00,3478.13,349.47,348.25,9.14,0000 0000 0000 0000 000000
2015-07-28 12:20:18,-0.00,0.24,0.00,23.76,27.30,29.68,4.78,24.52,1022.52,2039.02,3289.00,3211.00,3478.03,350.19,349.04,9.17,0000 0000 0000 0000 000000
2015-07-28 12:25:19,0.00,0.24,0.00,23.75,27.30,29.70,4.73,24.50,1022.49,2039.02,3289.00,3211.00,3478.02,349.82,348.76,9.20,0000 0000 0000 0000 000000
2015-07-28 12:30:20,-0.00,0.24,0.00,23.75,27.30,29.72,4.79,24.54,1022.48,2039.03,3288.99,3211.00,3478.02,350.00,348.90,9.23,0000 0000 0000 0000 000000
2015-07-28 12:35:21,-0.00,0.24,0.00,23.76,27.30,29.71,4.75,24.53,1022.48,2039.02,3288.93,3210.98,3478.00,349.93,348.67,9.26,0000 0000 0000 0000 000000
2015-07-28 12:40:22,0.01,0.24,0.00,23.75,27.31,29.72,4.79,24.71,1022.48,2039.02,3288.84,3210.96,3477.99,350.13,349.01,9.29,0000 0000 0000 0000 000000
2015-07-28 12:45:24,0.01,0.24,0.00,23.75,27.31,29.72,4.87,24.68,1022.48,2039.01,3288.50,3210.74,3477.99,349.51,348.48,9.32,0000 0000 0000 0000 000000
2015-07-28 12:50:25,0.00,0.24,0.00,23.75,27.32,29.74,4.85,24.56,1022.48,2039.02,3288.65,3210.76,3477.99,350.27,349.09,9.34,0000 0000 0000 0000 000000
2015-07-28 12:55:26,0.02,0.24,0.00,23.75,27.32,29.75,4.83,24.58,1022.48,2039.03,3288.34,3210.56,3477.98,350.34,349.15,9.37,0000 0000 0000 0000 000000
2015-07-28 13:00:27,0.02,0.24,0.00,23.75,27.32,29.74,4.78,24.72,1022.48,2039.01,3288.06,3210.20,3477.97,350.27,348.94,9.40,0000 0000 0000 0000 000000
2015-07-28 13:05:29,0.01,0.24,0.00,23.75,27.32,29.75,4.75,24.74,1022.47,2039.00,3288.00,3210.04,3477.77,349.89,348.65,9.43,0000 0000 0000 0000 000000